Find Starlink 11548

NORAD ID: 62829 Int'l Des: 2025-019 Owner: SPXS Country: US Constellation: starlink operational
LEOCIRCULAR

当前视图

正在加载3D地球...

About Starlink 11548

Starlink 11548 (NORAD 62829) is a starlink constellation satellite (v2 mini d2c) launched Jan 27, 2025 by SPXS of US. It operates in LEO, CIRCULAR orbit with a mass of 960.00 kg.

关于 Starlink 11548

正在加载描述...

即将过境

Passes for default location (London). Set your location on the main map for personalized predictions.

高度历史

Loading altitude history...

两行轨道根数

1 62829U 25019A 26171.37424699 .00071514 00000-0 55413-3 0 9994
2 62829 43.0008 46.7443 0001082 302.7748 57.3015 15.70922145 80032
Epoch: Jun 20, 2026 • Age: 44 hours

当前状态

高度 357.0 km
速度 7.70 km/s
星下点 -12.07°S, 34.74°E
发射日期 Jan 27, 2025
运行时间 1.3 years
类型 internet

技术详情

分类 Payload
质量 960.00 kg
干质量 910.00 kg
总质量 960.00 kg
长度 0.30 m
直径 4.10 m
跨度 29.00 m
形状 Box + pan
制造商 SPXS
平台类型 Starlink V2MD
阶段状态 In Orbit
所有者/国家 SPXS/US

Most Searched